Ankeny, IA

6:07 AM CST on November 20, 2019 (GMT -0600)
Ankeny Regional

Weather History for KIKV - September, 2019

Change the Weather History Date:

Saturday, September 21, 2019

  Actual Average (KDSM) Record (KDSM)
Temperature  
Mean Temperature 73 °F -  
Max Temperature 75 °F 72 °F 95 °F (1937)
Min Temperature 71 °F 50 °F 35 °F (1995)
Cooling Degree Days 8    
Growing Degree Days 23 (Base 50)    
Moisture  
Dew Point 70 °F    
Average Humidity 88    
Maximum Humidity 100    
Minimum Humidity 78    
Precipitation  
Precipitation 0.08 in - - ()
Sea Level Pressure  
Sea Level Pressure 29.91 in    
Wind  
Wind Speed 9 mph ()    
Max Wind Speed 16 mph    
Max Gust Speed 24 mph    
Visibility 9.1 miles    
Events Rain    
Averages and records for this station are not official NWS values.
T = Trace of Precipitation, MM = Missing Value Source: Averaged Metar Reports

Daily Weather History Graph

Daily Weather History Graph

Search for Another Location

Airport or City:

Astronomy

Sep. 21, 2019 Rise Set
Actual Time 7:00 AM CDT 7:13 PM CDT
Civil Twilight 6:32 AM CDT 7:41 PM CDT
Nautical Twilight 6:00 AM CDT 8:13 PM CDT
Astronomical Twilight 5:26 AM CDT 8:46 PM CDT
Moon 11:46 PM CDT (9/21) 2:12 PM CDT (9/21)
Length of Visible Light 13h 08m
Length of Day
12h 13m
Waning Gibbous, 54% of the Moon is Illuminated
Sep 21
Waning Gibbous
Sep 21
Last Quarter
Sep 28
New
Oct 5
First Quarter
Oct 13
Full

Hourly Weather History & Observations

Time (CDT) Temp. Dew Point Humidity Pressure Visibility Wind Dir Wind Speed Gust Speed Precip Events Conditions
12:15 AM 75.2 °F 68.0 °F 78% 29.96 in 10.0 mi South 8.1 mph - N/A   Overcast
12:35 AM 75.2 °F 68.0 °F 78% 29.96 in 10.0 mi South 6.9 mph 13.8 mph N/A   Overcast
12:55 AM 75.2 °F 68.0 °F 78% 29.94 in 10.0 mi South 8.1 mph 15.0 mph N/A   Mostly Cloudy
1:15 AM 73.4 °F 68.0 °F 83% 29.95 in 10.0 mi SSE 9.2 mph - N/A   Mostly Cloudy
1:35 AM 73.4 °F 68.0 °F 83% 29.95 in 10.0 mi SSE 8.1 mph 13.8 mph N/A   Mostly Cloudy
1:55 AM 73.4 °F 68.0 °F 83% 29.94 in 10.0 mi SSE 9.2 mph - N/A   Mostly Cloudy
2:15 AM 73.4 °F 68.0 °F 83% 29.94 in 10.0 mi Variable 6.9 mph 13.8 mph N/A   Mostly Cloudy
2:35 AM 73.4 °F 68.0 °F 83% 29.93 in 10.0 mi South 9.2 mph 15.0 mph N/A   Overcast
2:55 AM 73.4 °F 68.0 °F 83% 29.94 in 10.0 mi South 10.4 mph - N/A   Overcast
3:15 AM 73.4 °F 68.0 °F 83% 29.93 in 10.0 mi South 10.4 mph 17.3 mph N/A   Overcast
3:35 AM 73.4 °F 68.0 °F 83% 29.94 in 10.0 mi South 9.2 mph 18.4 mph N/A   Overcast
3:55 AM 73.4 °F 68.0 °F 83% 29.93 in 10.0 mi South 11.5 mph - N/A   Overcast
4:15 AM 73.4 °F 68.0 °F 83% 29.93 in 10.0 mi South 11.5 mph - N/A   Overcast
4:35 AM 71.6 °F 68.0 °F 88% 29.94 in 7.0 mi South 8.1 mph 19.6 mph N/A   Overcast
4:55 AM 71.6 °F 68.0 °F 88% 29.94 in 9.0 mi South 6.9 mph 15.0 mph N/A   Overcast
5:15 AM 71.6 °F 68.0 °F 88% 29.93 in 10.0 mi South 8.1 mph 13.8 mph N/A   Overcast
5:35 AM 71.6 °F 68.0 °F 88% 29.93 in 10.0 mi SSE 8.1 mph - N/A   Overcast
5:55 AM 71.6 °F 68.0 °F 88% 29.92 in 7.0 mi SSE 9.2 mph - N/A   Overcast
6:15 AM 71.6 °F 69.8 °F 94% 29.92 in 10.0 mi South 6.9 mph - N/A   Overcast
6:35 AM 71.6 °F 68.0 °F 88% 29.92 in 10.0 mi South 6.9 mph - N/A   Overcast
6:55 AM 71.6 °F 69.8 °F 94% 29.92 in 8.0 mi South 8.1 mph - N/A   Overcast
7:15 AM 71.6 °F 69.8 °F 94% 29.92 in 10.0 mi South 8.1 mph - N/A   Overcast
7:35 AM 71.6 °F 69.8 °F 94% 29.92 in 10.0 mi South 9.2 mph 20.7 mph N/A   Overcast
7:55 AM 73.4 °F 69.8 °F 88% 29.92 in 10.0 mi South 12.7 mph 19.6 mph N/A   Overcast
8:15 AM 73.4 °F 69.8 °F 88% 29.92 in 10.0 mi South 16.1 mph - N/A   Mostly Cloudy
8:35 AM 73.4 °F 69.8 °F 88% 29.91 in 10.0 mi South 13.8 mph 23.0 mph N/A   Overcast
8:55 AM 73.4 °F 69.8 °F 88% 29.92 in 10.0 mi South 13.8 mph 21.9 mph N/A   Overcast
9:15 AM 73.4 °F 69.8 °F 88% 29.92 in 10.0 mi South 11.5 mph 17.3 mph N/A   Overcast
9:35 AM 75.2 °F 69.8 °F 83% 29.92 in 10.0 mi South 13.8 mph 23.0 mph N/A   Overcast
9:55 AM 75.2 °F 69.8 °F 83% 29.93 in 10.0 mi South 10.4 mph 17.3 mph N/A   Overcast
10:15 AM 75.2 °F 69.8 °F 83% 29.93 in 10.0 mi South 10.4 mph 17.3 mph N/A   Overcast
10:35 AM 75.2 °F 69.8 °F 83% 29.92 in 10.0 mi South 11.5 mph 20.7 mph N/A   Overcast
10:55 AM 75.2 °F 69.8 °F 83% 29.92 in 10.0 mi South 13.8 mph 23.0 mph N/A   Overcast
11:35 AM 75.2 °F 69.8 °F 83% 29.91 in 10.0 mi South 12.7 mph 24.2 mph N/A   Overcast
11:55 AM 75.2 °F 69.8 °F 83% 29.91 in 10.0 mi South 13.8 mph - N/A   Overcast
12:15 PM 75.2 °F 69.8 °F 83% 29.90 in 10.0 mi South 10.4 mph - N/A   Overcast
12:35 PM 75.2 °F 69.8 °F 83% 29.90 in 10.0 mi South 10.4 mph 16.1 mph N/A   Overcast
12:55 PM 75.2 °F 69.8 °F 83% 29.90 in 10.0 mi South 9.2 mph 16.1 mph N/A   Overcast
1:15 PM 75.2 °F 69.8 °F 83% 29.90 in 10.0 mi South 11.5 mph 19.6 mph N/A   Overcast
1:35 PM 75.2 °F 71.6 °F 89% 29.90 in 10.0 mi South 11.5 mph 20.7 mph N/A   Overcast
1:55 PM 75.2 °F 71.6 °F 89% 29.89 in 5.0 mi South 9.2 mph 16.1 mph N/A   Overcast
2:15 PM 75.2 °F 71.6 °F 89% 29.89 in 7.0 mi South 13.8 mph - N/A   Mostly Cloudy
2:35 PM 75.2 °F 71.6 °F 89% 29.89 in 4.0 mi South 10.4 mph 17.3 mph N/A   Overcast
2:55 PM 75.2 °F 71.6 °F 89% 29.89 in 8.0 mi South 11.5 mph 18.4 mph N/A   Overcast
3:15 PM 75.2 °F 71.6 °F 89% 29.89 in 4.0 mi SSW 11.5 mph 21.9 mph N/A   Overcast
3:35 PM 75.2 °F 71.6 °F 89% 29.89 in 2.5 mi South 9.2 mph 18.4 mph N/A   Mostly Cloudy
3:55 PM 75.2 °F 73.4 °F 94% 29.88 in 9.0 mi South 10.4 mph 16.1 mph N/A   Overcast
4:15 PM 75.2 °F 71.6 °F 89% 29.88 in 10.0 mi South 11.5 mph 17.3 mph N/A   Overcast
4:35 PM 75.2 °F 71.6 °F 89% 29.88 in 4.0 mi South 11.5 mph 18.4 mph N/A   Overcast
4:55 PM 75.2 °F 73.4 °F 94% 29.87 in 9.0 mi South 11.5 mph 18.4 mph N/A   Overcast
5:15 PM 75.2 °F 73.4 °F 94% 29.87 in 2.5 mi South 9.2 mph 17.3 mph N/A Rain Light Rain
5:35 PM 73.4 °F 73.4 °F 100% 29.86 in 3.0 mi SSW 11.5 mph - N/A Rain Light Rain
5:55 PM 75.2 °F 73.4 °F 94% 29.86 in 9.0 mi SSW 10.4 mph 19.6 mph 0.08 in   Mostly Cloudy
6:15 PM 75.2 °F 73.4 °F 94% 29.86 in 8.0 mi South 10.4 mph 20.7 mph N/A   Overcast
6:35 PM 75.2 °F 71.6 °F 89% 29.86 in 10.0 mi SSW 13.8 mph 19.6 mph N/A   Overcast
6:55 PM 75.2 °F 71.6 °F 89% 29.88 in 9.0 mi SSW 9.2 mph 16.1 mph N/A   Light Drizzle
7:15 PM 75.2 °F 71.6 °F 89% 29.88 in 10.0 mi SSW 9.2 mph 16.1 mph N/A   Light Drizzle
7:35 PM 75.2 °F 71.6 °F 89% 29.88 in 10.0 mi SSW 8.1 mph - N/A   Overcast
7:55 PM 75.2 °F 71.6 °F 89% 29.88 in 10.0 mi SSW 10.4 mph - N/A   Overcast
8:15 PM 75.2 °F 71.6 °F 89% 29.89 in 10.0 mi SSW 8.1 mph - N/A   Overcast
8:35 PM 75.2 °F 71.6 °F 89% 29.89 in 10.0 mi South 8.1 mph - N/A   Overcast
8:55 PM 73.4 °F 69.8 °F 88% 29.89 in 10.0 mi South 11.5 mph - N/A   Mostly Cloudy
9:15 PM 73.4 °F 69.8 °F 88% 29.90 in 10.0 mi South 11.5 mph 17.3 mph N/A   Mostly Cloudy
9:35 PM 73.4 °F 69.8 °F 88% 29.89 in 10.0 mi South 8.1 mph 15.0 mph N/A   Mostly Cloudy
9:55 PM 73.4 °F 69.8 °F 88% 29.90 in 10.0 mi South 6.9 mph 13.8 mph N/A   Mostly Cloudy
10:15 PM 73.4 °F 69.8 °F 88% 29.89 in 10.0 mi South 6.9 mph - N/A   Overcast
10:35 PM 71.6 °F 69.8 °F 94% 29.88 in 10.0 mi South 11.5 mph 18.4 mph N/A   Mostly Cloudy
10:55 PM 71.6 °F 69.8 °F 94% 29.89 in 10.0 mi South 5.8 mph - N/A   Mostly Cloudy
11:15 PM 71.6 °F 69.8 °F 94% 29.91 in 10.0 mi South 5.8 mph - N/A   Overcast
11:35 PM 71.6 °F 69.8 °F 94% 29.90 in 10.0 mi South 6.9 mph - N/A   Overcast
11:55 PM 73.4 °F 69.8 °F 88% 29.89 in 10.0 mi South 4.6 mph - N/A   Overcast